Cloud_Cover
0 0 0 0 0 2 4 5 5 0 4 34 8 0 0 0 0 0 0 0 0 0 0 0 0 0 0 0 0 0 0 0 0 0 0 2 5 6 13 6 3 5 3 0 0 0 0
0 0 1 0 0 3 8 5 5 2 0 5 42 0 0 0 0 0 0 0 0 0 0 0 0 0 0 0 0 0 0 0 0 0 0 9 92 76 100 100 31 7 5 0 0 0 0
0 0 0 0 0 0 0 3 2 5 2 0 6 0 0 0 0 0 0 0 0 0 0 0 0 0 0 0 0 0 0 0 0 0 0 0 5 7 77 10 5 5 13 4 0 0 0
5 0 0 0 0 0 1 0 0 3 3 0 4 0 0 0 0 0 0 3 0 0 0 0 1 0 0 0 0 0 0 0 0 0 0 0 2 3 0 9 48 60 5 33 2 0 5
0 0 0 0 5 0 0 0 0 5 5 1 3 1 5 2 0 0 4 5 5 0 3 1 5 3 0 0 1 4 0 0 0 3 0 0 0 0 2 4 20 32 63 9 5 2 2
10 4 5 0 1 0 0 0 2 5 5 5 2 5 5 4 5 5 5 1 6 67 6 5 5 5 5 4 5 5 1 0 3 0 0 0 2 1 0 4 28 63 100 86 92 38 5
16 5 5 5 5 5 4 4 0 3 5 2 5 5 5 5 5 5 12 29 11 5 98 59 50 7 83 100 34 5 5 5 5 1 5 0 5 2 5 2 5 72 96 100 91 100 100
5 5 3 5 5 5 5 5 5 4 5 2 5 11 4 0 1 2 5 14 33 51 38 99 52 36 7 100 100 70 5 5 5 5 0 1 5 5 5 4 5 21 33 83 100 58 100
4 5 5 5 5 6 9 7 5 5 5 5 5 5 1 4 0 3 5 13 5 13 92 100 100 100 90 60 94 100 29 5 5 5 2 0 5 5 5 5 5 5 5 5 17 100 100
35 5 5 74 96 89 54 8 5 20 39 5 5 5 5 2 0 0 5 5 55 42 68 100 100 100 100 14 100 100 51 13 48 14 2 0 41 5 5 5 5 5 5 5 5 62 100
99 85 69 8 96 100 24 25 42 29 45 89 6 16 5 5 5 5 5 5 5 42 97 100 100 99 96 25 14 11 54 64 6 68 5 4 28 5 68 5 5 5 11 44 35 5 6
100 100 98 87 52 78 100 90 100 100 76 86 25 98 90 12 14 24 62 100 5 48 53 100 99 15 68 62 44 23 5 28 14 98 16 5 26 5 10 5 5 5 40 76 100 93 100
31 59 93 23 44 76 57 100 100 100 100 100 100 89 88 35 11 15 100 99 14 58 35 100 100 39 27 47 9 5 5 5 33 100 100 7 5 19 22 63 26 6 8 6 31 100 100
2 5 5 92 96 32 61 100 100 100 95 100 100 88 80 30 8 83 87 51 95 9 62 100 100 73 80 85 39 5 5 11 80 98 100 100 98 59 98 21 88 73 100 98 54 91 100
0 0 5 26 10 7 100 100 100 100 99 100 62 65 33 60 57 13 32 65 99 100 100 100 100 63 38 25 15 62 67 66 100 94 77 100 100 100 100 100 90 6 88 100 100 99 100
5 5 5 5 5 82 100 60 44 97 100 63 55 65 92 100 100 100 100 100 100 100 100 100 99 100 97 16 37 5 53 66 76 75 61 100 100 63 97 100 7 5 15 88 100 95 68
5 5 19 91 100 100 100 100 51 97 89 64 83 99 100 96 100 100 100 100 100 100 100 100 100 96 34 14 50 52 31 64 59 86 51 95 84 26 5 44 26 5 5 35 74 100 98
5 5 10 100 100 100 100 39 32 100 91 39 32 60 11 34 97 39 100 100 38 88 100 98 71 59 23 5 29 39 41 52 100 78 17 52 7 60 5 32 71 5 5 14 92 80 100
5 4 5 5 95 100 100 100 99 100 98 70 60 65 60 57 67 61 95 85 25 46 25 58 59 100 100 100 100 90 90 100 100 93 69 22 6 5 5 5 8 5 10 93 92 86 94
5 5 5 5 55 100 100 97 100 94 89 88 72 60 73 84 52 85 77 48 12 44 45 78 100 100 100 99 59 86 100 90 98 19 22 88 33 78 14 30 5 5 5 17 98 44 76
5 5 5 5 5 54 100 100 100 100 74 88 70 85 54 57 94 100 77 42 98 97 9 26 52 96 81 100 97 76 100 100 66 100 100 17 7 31 81 9 82 43 5 5 5 5 74
44 5 5 5 5 5 72 57 100 98 100 96 100 94 53 5 7 11 67 93 88 5 5 5 72 73 100 99 100 97 100 100 98 100 67 63 63 14 100 70 91 96 5 5 5 4 5
100 100 100 47 12 23 59 90 100 100 100 97 89 64 75 92 92 63 73 91 98 34 25 14 64 100 100 24 83 51 72 47 100 100 100 100 100 100 100 18 98 95 5 5 4 0 2
100 100 100 100 100 100 100 100 100 100 96 99 100 100 100 100 100 100 100 100 90 99 64 100 95 62 88 100 88 99 100 100 100 100 100 100 100 100 100 100 100 11 5 0 4 5 5
100 100 100 100 100 100 100 100 100 100 100 100 100 100 100 100 100 100 100 100 100 100 100 100 96 90 99 100 100 100 100 100 100 100 100 100 100 100 100 72 5 90 3 4 3 3 5
100 100 100 100 100 100 100 100 100 100 100 100 100 100 100 100 100 100 100 100 100 100 100 100 100 100 100 100 100 100 100 100 100 100 100 100 100 100 100 96 39 6 5 6 5 77 6
100 100 100 100 100 100 100 100 100 100 100 100 100 100 100 100 100 100 100 100 100 100 100 100 100 100 100 100 100 100 100 100 100 100 100 100 100 100 100 100 76 100 86 83 94 98 100
100 100 100 100 100 100 100 100 100 100 100 100 100 100 100 100 100 100 100 100 100 100 100 100 100 100 100 100 100 100 100 100 100 100 100 100 100 100 100 100 82 100 100 98 100 100 100
100 100 90 96 100 100 100 100 100 100 100 100 100 100 100 100 100 100 100 100 100 100 100 100 100 100 100 100 100 100 100 100 100 100 100 100 100 100 100 100 100 100 100 100 100 100 100